EW2940 Weather Reports


Display with metric or nautical units.
time (UTC)temp
F
wind
direction
speed
MPH
gust
MPH
rain 1hr
in
rain 24hr
in
rain mn
in
humidity
%
barometer
mb
20180920081702 73 65 0.0 0.0 0.00 0.57 0.01 98 1013.8
20180920080159 73 65 0.0 0.0 0.00 0.57 0.01 98 1013.8
20180920074658 73 65 0.0 0.0 0.01 0.57 0.01 98 1013.8
20180920073158 74 65 0.0 0.0 0.01 0.57 0.01 98 1013.5
20180920071657 74 65 0.0 0.0 0.01 0.57 0.01 98 1013.6
20180920070157 73 65 0.0 0.0 0.01 0.57 0.01 98 1013.7
20180920064656 73 65 0.0 0.0 0.00 0.56 0.00 98 1013.8
20180920063155 73 183 0.0 0.0 0.00 0.56 0.00 98 1013.5
20180920061654 74 183 0.0 0.0 0.00 0.56 0.00 98 1013.4
20180920060239 74 182 0.0 0.0 0.00 0.56 0.00 98 1013.6
20180920054654 74 182 0.0 0.0 0.00 0.56 0.00 98 1013.6
20180920053152 74 182 0.0 0.0 0.00 0.56 0.00 98 1013.7
20180920051733 74 182 0.0 0.0 0.00 0.56 0.00 98 1013.7
20180920050149 74 182 0.0 0.0 0.00 0.56 0.00 97 1013.7
20180920044649 74 182 0.0 0.0 0.00 0.56 0.56 97 1013.8
20180920043146 75 182 0.0 0.0 0.00 0.56 0.56 97 1013.7
20180920041707 75 182 0.0 0.0 0.00 0.56 0.56 97 1013.6
20180920040143 76 182 0.0 0.0 0.00 0.56 0.56 96 1013.5
20180920034716 76 182 0.0 0.0 0.00 0.56 0.56 96 1013.4
20180920033153 76 182 0.0 0.0 0.00 0.56 0.56 96 1013.3
20180920031649 76 182 0.0 0.0 0.00 0.56 0.56 96 1013.3
20180920030140 76 182 0.0 0.0 0.00 0.56 0.56 95 1013.4
20180920024641 76 182 0.0 0.0 0.00 0.56 0.56 96 1013.4
20180920023139 76 182 0.0 0.0 0.00 0.56 0.56 95 1013.4
20180920021653 77 182 0.0 0.0 0.00 0.56 0.56 93 1013.3
20180920020139 77 182 0.0 0.0 0.00 0.56 0.56 95 1013.3
20180920014637 77 182 0.0 0.0 0.00 0.56 0.56 93 1013.3
20180920013139 77 182 0.0 0.0 0.00 0.56 0.56 93 1013.1
20180920011717 78 163 0.0 0.0 0.00 0.56 0.56 92 1012.9
20180920010344 79 163 0.0 0.0 0.00 0.56 0.56 91 1012.6
20180920004641 77 163 0.0 0.0 0.00 0.56 0.56 92 1012.3
20180920003134 80 163 0.0 0.0 0.00 0.56 0.56 87 1012.2
20180920001635 81 163 0.0 0.0 0.00 0.56 0.56 86 1011.9
20180920000134 80 163 0.0 0.0 0.00 0.56 0.56 86 1011.7
20180919234632 79 104 0.0 0.0 0.00 0.56 0.56 91 1011.7
20180919233134 78 104 0.0 0.0 0.00 0.56 0.56 91 1011.7
20180919231639 78 126 0.0 1.0 0.00 0.56 0.56 89 1011.8
20180919230133 78 88 0.0 5.0 0.00 0.56 0.56 91 1011.7
20180919224631 78 104 0.0 0.0 0.00 0.56 0.56 88 1011.7
20180919223131 79 126 2.0 4.0 0.00 0.56 0.56 87 1011.7
20180919221630 79 117 0.0 6.0 0.01 0.56 0.56 87 1011.6
20180919220130 78 126 2.0 6.0 0.05 0.56 0.56 90 1011.8
20180919214628 79 111 3.0 10.0 0.28 0.56 0.56 87 1011.9
20180919213129 80 111 7.0 10.0 0.56 0.56 0.56 87 1012.2
20180919211630 81 138 1.0 7.0 0.54 0.55 0.55 91 1012.3
20180919210128 80 121 2.0 13.0 0.50 0.51 0.51 91 1012.0
20180919204636 85 82 8.0 17.0 0.23 0.27 0.24 79 1011.8
20180919203126 95 51 5.0 8.0 0.00 0.04 0.01 58 1011.5
20180919201645 96 58 2.0 5.0 0.00 0.04 0.01 53 1011.8
20180919200133 95 222 0.0 4.0 0.00 0.04 0.01 56 1012.0
20180919194619 95 126 1.0 6.0 0.00 0.04 0.01 58 1012.0
20180919193118 93 182 2.0 5.0 0.00 0.04 0.01 62 1012.3
20180919191644 94 360 0.0 4.0 0.00 0.04 0.01 62 1012.3
20180919190214 95 69 0.0 6.0 0.00 0.04 0.01 60 1012.5
20180919184718 94 219 3.0 7.0 0.00 0.04 0.01 63 1012.7
20180919183127 92 160 2.0 10.0 0.00 0.04 0.01 67 1013.0
20180919181612 93 169 6.0 9.0 0.00 0.04 0.01 65 1013.1
20180919180140 91 200 2.0 7.0 0.00 0.04 0.01 69 1013.3
20180919174641 90 201 0.0 6.0 0.00 0.04 0.01 70 1013.8
20180919173107 92 190 4.0 6.0 0.00 0.04 0.01 69 1013.9
20180919171641 90 191 0.0 6.0 0.00 0.04 0.01 74 1014.3
20180919170233 90 202 2.0 9.0 0.00 0.04 0.01 77 1014.3
20180919164636 89 197 3.0 8.0 0.00 0.04 0.01 77 1014.4
20180919163132 89 209 3.0 8.0 0.00 0.04 0.01 78 1014.4
20180919161723 88 201 2.0 7.0 0.00 0.04 0.01 81 1014.4
20180919160058 87 189 3.0 9.0 0.00 0.04 0.01 81 1014.6
20180919154619 87 207 3.0 8.0 0.00 0.04 0.01 84 1014.7
20180919153103 86 175 4.0 9.0 0.00 0.04 0.01 87 1014.5
20180919151622 86 205 4.0 7.0 0.00 0.04 0.01 87 1014.5
20180919150119 85 180 6.0 8.0 0.00 0.04 0.01 86 1014.4
20180919144559 85 181 4.0 6.0 0.00 0.04 0.01 86 1014.4
20180919143103 82 153 5.0 9.0 0.00 0.04 0.01 90 1014.5
20180919141619 82 101 0.0 2.0 0.00 0.04 0.01 93 1014.4
20180919140043 79 102 0.0 0.0 0.00 0.04 0.01 98 1014.4
20180919134544 79 102 0.0 2.0 0.00 0.04 0.01 98 1014.3
20180919133047 78 102 0.0 0.0 0.00 0.04 0.01 98 1014.3
20180919131554 78 102 0.0 0.0 0.00 0.04 0.01 98 1014.1
20180919130058 78 102 0.0 0.0 0.00 0.04 0.01 98 1013.8
20180919124537 77 102 0.0 0.0 0.00 0.04 0.01 98 1013.8
20180919123101 77 102 0.0 0.0 0.00 0.04 0.01 97 1013.8
20180919121558 77 102 0.0 0.0 0.01 0.04 0.01 97 1013.6
20180919120107 77 102 0.0 0.0 0.01 0.04 0.01 98 1013.3
20180919114546 77 102 0.0 0.0 0.01 0.04 0.01 97 1013.3
20180919113039 77 102 0.0 0.0 0.01 0.04 0.01 98 1013.3
20180919111645 77 102 0.0 0.0 0.00 0.03 0.00 97 1013.2
20180919110042 77 102 0.0 0.0 0.00 0.03 0.00 97 1012.8
20180919104536 77 102 0.0 0.0 0.00 0.04 0.00 98 1012.8
20180919103041 76 102 0.0 0.0 0.00 0.04 0.00 98 1012.7
20180919101609 77 102 0.0 0.0 0.00 0.04 0.00 98 1012.8
20180919100027 77 102 0.0 0.0 0.00 0.04 0.00 97 1012.5
20180919094531 77 102 0.0 0.0 0.00 0.04 0.00 98 1012.4
20180919093037 77 102 0.0 0.0 0.00 0.04 0.00 98 1012.4
20180919091549 77 102 0.0 0.0 0.00 0.04 0.00 98 1012.3
20180919090044 77 102 0.0 0.0 0.00 0.04 0.00 97 1012.2
20180919084543 77 102 0.0 0.0 0.00 0.04 0.00 98 1012.2
20180919083028 77 102 0.0 0.0 0.00 0.04 0.00 97 1012.0